AI9F Weather Reports


Display with metric or nautical units.
time (UTC)temp
F
wind
direction
speed
MPH
gust
MPH
rain 1hr
in
rain 24hr
in
rain mn
in
humidity
%
barometer
mb
20260905213943 97 146 1.0 1.0 0.00 0.00 0.00 44 1011.0
20260905213440 97 158 1.0 1.0 0.00 0.00 0.00 44 1011.0
20260905212935 97 182 2.0 2.0 0.00 0.00 0.00 44 1011.2
20260905212430 97 163 2.0 2.0 0.00 0.00 0.00 43 1011.1
20260905211928 97 117 1.0 1.0 0.00 0.00 0.00 42 1010.9
20260905211425 96 150 1.0 1.0 0.00 0.00 0.00 46 1011.0
20260905210921 95 110 1.0 1.0 0.00 0.00 0.00 49 1011.1
20260905210421 94 143 1.0 1.0 0.00 0.00 0.00 49 1011.1
20260905205920 92 164 1.0 1.0 0.00 0.00 0.00 53 1011.2
20260905205415 92 187 2.0 2.0 0.00 0.00 0.00 54 1011.4
20260905204914 91 143 1.0 1.0 0.00 0.00 0.00 53 1011.3
20260905204410 91 175 1.0 1.0 0.00 0.00 0.00 52 1011.5
20260905203909 92 137 1.0 0.0 0.00 0.00 0.00 52 1011.4
20260905203404 92 128 1.0 1.0 0.00 0.00 0.00 51 1011.5
20260905202900 93 180 2.0 2.0 0.00 0.00 0.00 49 1011.6
20260905202355 94 155 1.0 2.0 0.00 0.00 0.00 49 1011.7
20260905201851 95 112 0.0 0.0 0.00 0.00 0.00 47 1011.7
20260905201346 96 155 2.0 2.0 0.00 0.00 0.00 46 1011.7
20260905200845 97 104 4.0 4.0 0.00 0.00 0.00 45 1011.7
20260905200342 98 189 2.0 2.0 0.00 0.00 0.00 43 1011.5
20260905195840 99 172 3.0 4.0 0.00 0.00 0.00 42 1011.7
20260905195335 100 185 2.0 3.0 0.00 0.00 0.00 40 1011.4
20260905194831 100 253 4.0 6.0 0.00 0.00 0.00 39 1011.7
20260905194330 102 173 2.0 2.0 0.00 0.00 0.00 37 1011.7
20260905193829 103 119 1.0 1.0 0.00 0.00 0.00 36 1011.7
20260905193324 102 139 2.0 2.0 0.00 0.00 0.00 40 1011.5
20260905192820 103 166 1.0 1.0 0.00 0.00 0.00 37 1011.6
20260905192316 103 324 5.0 8.0 0.00 0.00 0.00 36 1011.6
20260905191815 100 137 2.0 2.0 0.00 0.00 0.00 40 1011.7
20260905191314 99 241 4.0 6.0 0.00 0.00 0.00 39 1011.9
20260905190812 99 173 2.0 2.0 0.00 0.00 0.00 40 1011.7
20260905190307 101 195 2.0 2.0 0.00 0.00 0.00 38 1011.6
20260905185806 102 144 1.0 1.0 0.00 0.00 0.00 37 1011.9
20260905185305 104 229 5.0 6.0 0.00 0.00 0.00 36 1012.0
20260905184800 104 150 1.0 1.0 0.00 0.00 0.00 36 1012.0
20260905184259 102 101 1.0 2.0 0.00 0.00 0.00 36 1012.1
20260905183758 102 256 4.0 7.0 0.00 0.00 0.00 38 1012.2
20260905183254 102 159 1.0 1.0 0.00 0.00 0.00 37 1012.3
20260905182754 102 172 2.0 2.0 0.00 0.00 0.00 40 1012.4
20260905182253 101 115 1.0 1.0 0.00 0.00 0.00 39 1012.4
20260905181749 102 217 3.0 3.0 0.00 0.00 0.00 39 1012.6
20260905181249 102 221 5.0 7.0 0.00 0.00 0.00 38 1012.5
20260905180748 101 145 2.0 2.0 0.00 0.00 0.00 40 1012.7
20260905180243 101 256 3.0 3.0 0.00 0.00 0.00 40 1012.5
20260905175738 100 124 0.0 0.0 0.00 0.00 0.00 38 1012.7
20260905175233 101 214 5.0 7.0 0.00 0.00 0.00 38 1012.5
20260905174728 102 189 2.0 3.0 0.00 0.00 0.00 39 1012.4
20260905174224 101 114 0.0 0.0 0.00 0.00 0.00 44 1012.6
20260905173720 100 154 1.0 1.0 0.00 0.00 0.00 42 1012.8
20260905173216 101 254 5.0 7.0 0.00 0.00 0.00 39 1012.9
20260905172715 101 144 1.0 1.0 0.00 0.00 0.00 41 1013.0
20260905172215 100 119 1.0 2.0 0.00 0.00 0.00 42 1013.1
20260905171710 101 190 3.0 3.0 0.00 0.00 0.00 40 1012.9
20260905171206 100 193 4.0 6.0 0.00 0.00 0.00 41 1013.2
20260905170704 100 176 3.0 3.0 0.00 0.00 0.00 40 1013.1
20260905170204 99 156 1.0 1.0 0.00 0.00 0.00 40 1013.3
20260905165703 100 159 1.0 1.0 0.00 0.00 0.00 42 1013.2
20260905165159 99 137 0.0 0.0 0.00 0.00 0.00 43 1013.2
20260905164653 99 177 2.0 2.0 0.00 0.00 0.00 42 1013.4
20260905164153 100 169 2.0 2.0 0.00 0.00 0.00 42 1013.4
20260905163649 98 135 1.0 2.0 0.00 0.00 0.00 42 1013.2
20260905163145 98 153 1.0 1.0 0.00 0.00 0.00 42 1013.3
20260905162641 99 164 2.0 2.0 0.00 0.00 0.00 42 1013.3
20260905162141 98 166 2.0 2.0 0.00 0.00 0.00 45 1013.7
20260905161641 98 159 1.0 2.0 0.00 0.00 0.00 47 1013.6
20260905161139 97 163 1.0 1.0 0.00 0.00 0.00 46 1014.0
20260905160633 97 203 5.0 6.0 0.00 0.00 0.00 44 1013.7
20260905160133 96 152 1.0 1.0 0.00 0.00 0.00 45 1013.6
20260905155633 96 141 0.0 0.0 0.00 0.00 0.00 46 1013.6
20260905155131 96 209 1.0 2.0 0.00 0.00 0.00 48 1013.5
20260905154626 96 190 4.0 4.0 0.00 0.00 0.00 47 1013.7
20260905154121 95 140 1.0 1.0 0.00 0.00 0.00 49 1014.1
20260905153617 95 179 1.0 2.0 0.00 0.00 0.00 51 1013.9
20260905153112 95 145 1.0 1.0 0.00 0.00 0.00 48 1013.9
20260905152607 94 343 2.0 2.0 0.00 0.00 0.00 47 1013.9
20260905152102 94 167 1.0 2.0 0.00 0.00 0.00 48 1013.9
20260905151557 94 178 1.0 1.0 0.00 0.00 0.00 50 1013.7
20260905151052 93 145 1.0 1.0 0.00 0.00 0.00 53 1013.8
20260905150547 92 184 2.0 2.0 0.00 0.00 0.00 54 1013.8
20260905150045 92 187 1.0 1.0 0.00 0.00 0.00 56 1013.7
20260905145539 91 158 1.0 1.0 0.00 0.00 0.00 56 1013.7
20260905145038 91 175 2.0 2.0 0.00 0.00 0.00 62 1013.7
20260905144533 91 148 1.0 1.0 0.00 0.00 0.00 60 1013.9
20260905144032 90 185 1.0 1.0 0.00 0.00 0.00 63 1013.7
20260905143531 89 184 0.0 0.0 0.00 0.00 0.00 60 1013.8
20260905143027 89 165 1.0 1.0 0.00 0.00 0.00 62 1013.9
20260905142525 89 130 1.0 1.0 0.00 0.00 0.00 63 1013.9
20260905142021 88 162 1.0 1.0 0.00 0.00 0.00 65 1014.0
20260905141515 88 161 1.0 1.0 0.00 0.00 0.00 67 1013.8
20260905141012 87 161 1.0 1.0 0.00 0.00 0.00 67 1014.0
20260905140506 87 162 1.0 1.0 0.00 0.00 0.00 67 1014.0
20260905140005 86 161 1.0 1.0 0.00 0.00 0.00 67 1014.2
20260905135501 86 161 1.0 1.0 0.00 0.00 0.00 68 1014.1
20260905134956 86 161 0.0 0.0 0.00 0.00 0.00 69 1014.1
20260905134455 85 161 0.0 0.0 0.00 0.00 0.00 71 1014.2
20260905133955 85 161 1.0 1.0 0.00 0.00 0.00 72 1014.3
20260905133450 85 161 0.0 0.0 0.00 0.00 0.00 71 1014.1
20260905132949 84 161 1.0 1.0 0.00 0.00 0.00 71 1014.1
20260905132444 84 161 1.0 1.0 0.00 0.00 0.00 72 1014.1
20260905131939 83 161 1.0 1.0 0.00 0.00 0.00 74 1014.3
20260905131436 82 161 0.0 0.0 0.00 0.00 0.00 75 1014.4
20260905130930 82 161 0.0 0.0 0.00 0.00 0.00 75 1014.1
20260905130430 82 161 0.0 0.0 0.00 0.00 0.00 76 1014.3
20260905125929 81 161 0.0 0.0 0.00 0.00 0.00 78 1014.4
20260905125424 79 161 0.0 0.0 0.00 0.00 0.00 82 1014.1
20260905124920 78 161 0.0 0.0 0.00 0.00 0.00 83 1014.1
20260905124416 77 161 0.0 0.0 0.00 0.00 0.00 85 1014.1
20260905123916 76 161 0.0 0.0 0.00 0.00 0.00 87 1014.1
20260905123413 76 161 0.0 0.0 0.00 0.00 0.00 88 1014.1
20260905122908 76 161 0.0 0.0 0.00 0.00 0.00 89 1013.9
20260905122407 75 161 0.0 0.0 0.00 0.00 0.00 89 1013.8
20260905121903 75 161 0.0 0.0 0.00 0.00 0.00 89 1014.0
20260905121359 75 161 0.0 0.0 0.00 0.00 0.00 89 1013.9
20260905120858 75 161 0.0 0.0 0.00 0.00 0.00 89 1013.9
20260905120358 75 160 1.0 0.0 0.00 0.00 0.00 89 1013.8
20260905115853 75 160 0.0 0.0 0.00 0.00 0.00 89 1013.8
20260905115352 74 160 0.0 0.0 0.00 0.00 0.00 89 1013.8
20260905114847 74 160 0.0 0.0 0.00 0.00 0.00 89 1013.6
20260905114346 74 160 0.0 0.0 0.00 0.00 0.00 90 1013.7
20260905113846 74 160 1.0 1.0 0.00 0.00 0.00 90 1013.7
20260905113341 74 160 0.0 0.0 0.00 0.00 0.00 90 1013.7
20260905112836 74 160 0.0 0.0 0.00 0.00 0.00 91 1013.8
20260905112332 74 160 0.0 0.0 0.00 0.00 0.00 91 1013.7
20260905111827 74 160 0.0 0.0 0.00 0.00 0.00 90 1013.5
20260905111327 75 160 0.0 0.0 0.00 0.00 0.00 89 1013.6
20260905110826 75 160 0.0 0.0 0.00 0.00 0.00 88 1013.6
20260905110326 75 160 0.0 0.0 0.00 0.00 0.00 87 1013.5
20260905105822 76 160 0.0 0.0 0.00 0.00 0.00 85 1013.6
20260905105321 77 160 0.0 0.0 0.00 0.00 0.00 83 1013.4
20260905104815 78 160 0.0 0.0 0.00 0.00 0.00 81 1013.4
20260905104312 78 160 0.0 0.0 0.00 0.00 0.00 80 1013.5
20260905103811 78 160 1.0 1.0 0.00 0.00 0.00 80 1013.6
20260905103306 77 159 0.0 0.0 0.00 0.00 0.00 81 1013.4
20260905102802 76 159 0.0 0.0 0.00 0.00 0.00 83 1013.4
20260905102259 75 193 0.0 1.0 0.00 0.00 0.00 87 1013.5
20260905101758 75 144 0.0 0.0 0.00 0.00 0.00 86 1013.5
20260905101257 76 144 0.0 0.0 0.00 0.00 0.00 86 1013.4
20260905100752 76 144 0.0 0.0 0.00 0.00 0.00 86 1013.6
20260905100248 75 144 0.0 0.0 0.00 0.00 0.00 86 1013.4
20260905095747 75 144 0.0 0.0 0.00 0.00 0.00 86 1013.3
20260905095247 76 144 0.0 0.0 0.00 0.00 0.00 86 1013.3
20260905094741 76 144 0.0 0.0 0.00 0.00 0.00 85 1013.3
20260905094237 77 144 0.0 0.0 0.00 0.00 0.00 83 1013.4
20260905093736 77 144 0.0 0.0 0.00 0.00 0.00 82 1013.3
20260905093232 78 144 0.0 0.0 0.00 0.00 0.00 81 1013.4
20260905092728 78 144 0.0 0.0 0.00 0.00 0.00 79 1013.1
20260905092223 78 144 0.0 0.0 0.00 0.00 0.00 80 1013.1
20260905091722 78 144 0.0 0.0 0.00 0.00 0.00 80 1013.2
20260905091217 77 144 0.0 0.0 0.00 0.00 0.00 80 1012.9
20260905090716 78 144 0.0 0.0 0.00 0.00 0.00 81 1013.1
20260905090213 78 144 0.0 0.0 0.00 0.00 0.00 81 1012.9
20260905085711 77 144 0.0 0.0 0.00 0.00 0.00 81 1013.2
20260905085207 77 144 0.0 0.0 0.00 0.00 0.00 81 1012.9
20260905084706 77 144 0.0 0.0 0.00 0.00 0.00 82 1013.0
20260905084201 77 144 0.0 0.0 0.00 0.00 0.00 81 1013.1
20260905083701 77 144 0.0 0.0 0.00 0.00 0.00 82 1013.1
20260905083157 77 144 0.0 0.0 0.00 0.00 0.00 83 1013.0
20260905082653 76 144 0.0 0.0 0.00 0.00 0.00 85 1013.1
20260905082148 76 144 0.0 0.0 0.00 0.00 0.00 86 1013.1
20260905081643 75 144 0.0 0.0 0.00 0.00 0.00 87 1013.1
20260905081138 76 144 0.0 0.0 0.00 0.00 0.00 87 1013.0
20260905080633 76 144 0.0 0.0 0.00 0.00 0.00 87 1013.3
20260905080132 76 144 0.0 0.0 0.00 0.00 0.00 87 1013.2
20260905075632 75 144 0.0 0.0 0.00 0.00 0.00 88 1013.1
20260905075131 75 144 0.0 0.0 0.00 0.00 0.00 90 1013.3
20260905074630 75 144 0.0 0.0 0.00 0.00 0.00 91 1013.1
20260905074126 74 144 0.0 0.0 0.00 0.00 0.00 91 1013.3
20260905073622 74 144 0.0 0.0 0.00 0.00 0.00 91 1013.3
20260905073117 74 144 0.0 0.0 0.00 0.00 0.00 91 1013.2
20260905072616 75 144 0.0 0.0 0.00 0.00 0.00 90 1013.3
20260905072112 75 144 0.0 0.0 0.00 0.00 0.00 90 1013.4
20260905071609 75 144 0.0 0.0 0.00 0.00 0.00 89 1013.5
20260905071109 75 144 0.0 0.0 0.00 0.00 0.00 89 1013.5
20260905070604 75 144 0.0 0.0 0.00 0.00 0.00 89 1013.4
20260905070100 75 144 0.0 0.0 0.00 0.00 0.00 90 1013.4
20260905065557 75 145 0.0 0.0 0.00 0.00 0.00 91 1013.3
20260905065053 75 145 0.0 0.0 0.00 0.00 0.00 90 1013.4
20260905064553 75 145 0.0 0.0 0.00 0.00 0.00 90 1013.3
20260905064048 75 145 0.0 0.0 0.00 0.00 0.00 89 1013.2
20260905063547 75 145 0.0 0.0 0.00 0.00 0.00 89 1013.4
20260905063044 75 145 0.0 0.0 0.00 0.00 0.00 88 1013.2
20260905062539 76 145 0.0 0.0 0.00 0.00 0.00 88 1013.3
20260905062038 76 145 0.0 0.0 0.00 0.00 0.00 87 1013.6
20260905061534 76 145 0.0 0.0 0.00 0.00 0.00 87 1013.5
20260905061033 76 145 0.0 0.0 0.00 0.00 0.00 87 1013.6
20260905060529 76 145 0.0 0.0 0.00 0.00 0.00 88 1013.6
20260905060025 76 145 0.0 0.0 0.00 0.00 0.00 88 1013.7
20260905055523 76 145 0.0 0.0 0.00 0.00 0.00 87 1013.6
20260905055018 76 145 0.0 0.0 0.00 0.00 0.00 87 1013.7
20260905054514 77 145 0.0 0.0 0.00 0.00 0.00 86 1013.6
20260905054009 77 145 0.0 0.0 0.00 0.00 0.00 86 1013.6
20260905053503 77 145 0.0 0.0 0.00 0.00 0.00 86 1013.7
20260905052959 77 145 0.0 0.0 0.00 0.00 0.00 87 1013.8
20260905052458 76 145 0.0 0.0 0.00 0.00 0.00 88 1013.9
20260905051958 76 145 1.0 1.0 0.00 0.00 0.00 88 1013.5
20260905051453 76 145 0.0 0.0 0.00 0.00 0.00 88 1013.5
20260905050951 76 145 0.0 0.0 0.00 0.00 0.00 89 1013.6
20260905050446 76 145 0.0 0.0 0.00 0.00 0.00 88 1013.7
20260905045942 77 145 0.0 0.0 0.00 0.00 0.00 87 1013.8
20260905045437 77 145 0.0 0.0 0.00 0.00 0.00 86 1013.6
20260905044933 77 145 0.0 0.0 0.00 0.00 0.00 86 1013.8
20260905044427 77 145 0.0 0.0 0.00 0.00 0.00 85 1013.9
20260905043927 77 145 0.0 0.0 0.00 0.00 0.00 84 1013.7
20260905043426 77 145 0.0 0.0 0.00 0.00 0.00 84 1013.8
20260905042921 77 145 0.0 0.0 0.00 0.00 0.00 85 1013.8
20260905042416 77 145 0.0 0.0 0.00 0.00 0.00 85 1013.9
20260905041910 77 145 0.0 0.0 0.00 0.00 0.00 85 1013.9
20260905041407 77 145 0.0 0.0 0.00 0.00 0.00 85 1013.7
20260905040901 77 145 0.0 0.0 0.00 0.00 0.00 84 1013.7
20260905040401 78 145 0.0 0.0 0.00 0.00 0.00 85 1013.8
20260905035900 78 145 0.0 0.0 0.00 0.00 0.00 84 1013.8
20260905035355 78 145 0.0 0.0 0.00 0.00 0.00 83 1013.7
20260905034852 78 145 0.0 0.0 0.00 0.00 0.00 82 1013.8
20260905034348 79 145 0.0 0.0 0.00 0.00 0.00 81 1013.6
20260905033846 79 145 0.0 0.0 0.00 0.00 0.00 82 1013.7
20260905033342 78 145 0.0 0.0 0.00 0.00 0.00 82 1013.7
20260905032840 78 145 0.0 0.0 0.00 0.00 0.00 83 1013.5
20260905032336 79 145 0.0 0.0 0.00 0.00 0.00 83 1013.6
20260905031831 79 145 0.0 0.0 0.00 0.00 0.00 82 1013.7
20260905031327 79 145 0.0 0.0 0.00 0.00 0.00 82 1013.7
20260905030822 79 145 0.0 0.0 0.00 0.00 0.00 82 1013.6
20260905030318 79 145 0.0 0.0 0.00 0.00 0.00 83 1013.8
20260905025817 79 145 0.0 0.0 0.00 0.00 0.00 82 1013.4
20260905025312 79 145 0.0 0.0 0.00 0.00 0.00 83 1013.6
20260905024809 79 145 0.0 0.0 0.00 0.00 0.00 83 1013.7
20260905024304 79 145 0.0 0.0 0.00 0.00 0.00 82 1013.8
20260905023759 80 145 0.0 0.0 0.00 0.00 0.00 81 1013.8
20260905023254 80 145 0.0 0.0 0.00 0.00 0.00 79 1013.6
20260905022753 80 145 0.0 0.0 0.00 0.00 0.00 78 1013.7
20260905022249 80 145 0.0 0.0 0.00 0.00 0.00 78 1013.6
20260905021749 80 145 0.0 0.0 0.00 0.00 0.00 77 1013.5
20260905021244 80 145 0.0 0.0 0.00 0.00 0.00 78 1013.7
20260905020744 81 145 0.0 0.0 0.00 0.00 0.00 78 1013.5
20260905020239 81 145 0.0 0.0 0.00 0.00 0.00 78 1013.4
20260905015738 81 145 0.0 0.0 0.00 0.00 0.00 79 1013.1
20260905015232 81 145 0.0 0.0 0.00 0.00 0.00 78 1013.5
20260905014731 82 145 0.0 0.0 0.00 0.00 0.00 77 1013.4
20260905014227 82 145 0.0 0.0 0.00 0.00 0.00 76 1013.4
20260905013722 82 145 0.0 0.0 0.00 0.00 0.00 75 1013.1
20260905013218 83 145 0.0 0.0 0.00 0.00 0.00 74 1013.3
20260905012714 83 145 0.0 0.0 0.00 0.00 0.00 74 1012.9
20260905012209 83 145 0.0 0.0 0.00 0.00 0.00 73 1012.9
20260905011706 83 145 0.0 0.0 0.00 0.00 0.00 73 1013.1
20260905011201 84 145 0.0 0.0 0.00 0.00 0.00 71 1013.2
20260905010701 84 145 0.0 0.0 0.00 0.00 0.00 71 1013.0
20260905010157 84 145 0.0 0.0 0.00 0.00 0.00 71 1013.0
20260905005654 85 145 0.0 0.0 0.00 0.00 0.00 70 1012.9
20260905005149 85 145 0.0 0.0 0.00 0.00 0.00 68 1012.7
20260905004643 86 145 1.0 0.0 0.00 0.00 0.00 67 1012.7
20260905004138 86 145 0.0 0.0 0.00 0.00 0.00 67 1012.6
20260905003634 87 145 0.0 0.0 0.00 0.00 0.00 65 1012.8
20260905003129 87 145 0.0 0.0 0.00 0.00 0.00 64 1012.9
20260905002625 88 145 0.0 0.0 0.00 0.00 0.00 64 1012.8
20260905002120 89 145 0.0 0.0 0.00 0.00 0.00 62 1012.9
20260905001615 89 145 0.0 0.0 0.00 0.00 0.00 61 1012.5
20260905001114 90 145 0.0 0.0 0.00 0.00 0.00 59 1012.6
20260905000610 91 145 1.0 1.0 0.00 0.00 0.00 56 1012.6
20260905000106 92 145 0.0 0.0 0.00 0.00 0.00 51 1012.5
20260904235606 94 145 0.0 0.0 0.00 0.00 0.00 49 1012.5
20260904235105 96 145 0.0 0.0 0.00 0.00 0.00 46 1012.5
20260904234600 97 144 0.0 0.0 0.00 0.00 0.00 47 1012.6
20260904234056 97 144 0.0 0.0 0.00 0.00 0.00 45 1012.8
20260904233556 98 144 0.0 0.0 0.00 0.00 0.00 44 1012.6
20260904233052 99 144 1.0 1.0 0.00 0.00 0.00 41 1012.9
20260904232548 99 144 0.0 0.0 0.00 0.00 0.00 41 1012.6
20260904232045 99 142 0.0 0.0 0.00 0.00 0.00 40 1012.5
20260904231540 99 143 0.0 0.0 0.00 0.00 0.00 39 1012.5
20260904231035 100 143 1.0 1.0 0.00 0.00 0.00 39 1012.5
20260904230534 100 162 2.0 1.0 0.00 0.00 0.00 38 1012.4
20260904230030 100 49 1.0 2.0 0.00 0.00 0.00 38 1012.4
20260904225527 100 135 1.0 1.0 0.00 0.00 0.00 40 1012.4
20260904225027 99 146 1.0 1.0 0.00 0.00 0.00 39 1012.3
20260904224523 100 171 2.0 3.0 0.00 0.00 0.00 37 1012.3
20260904224022 100 147 1.0 1.0 0.00 0.00 0.00 38 1012.4
20260904223521 100 172 2.0 3.0 0.00 0.00 0.00 37 1012.3
20260904223018 101 160 4.0 3.0 0.00 0.00 0.00 37 1012.3
20260904222513 101 131 1.0 1.0 0.00 0.00 0.00 37 1012.4
20260904222008 102 154 1.0 1.0 0.00 0.00 0.00 36 1012.4
20260904221502 102 148 2.0 2.0 0.00 0.00 0.00 35 1012.5
20260904220957 102 158 1.0 1.0 0.00 0.00 0.00 37 1012.3
20260904220457 102 156 1.0 1.0 0.00 0.00 0.00 36 1012.5
20260904215952 102 161 1.0 1.0 0.00 0.00 0.00 37 1012.4
20260904215447 102 148 1.0 1.0 0.00 0.00 0.00 35 1012.5
20260904214943 102 322 2.0 3.0 0.00 0.00 0.00 35 1012.8
20260904214438 103 293 2.0 3.0 0.00 0.00 0.00 35 1012.8